Weather in Baklashi

Russia / Irkutsk Oblast     52°13′32″N   104°02′56″E
temp.,
°C
wind,
m/s
gust,
m/s
humid.,
%
clouds,
%
prec.,
mm/h
press.,
hPa
HPBL,
m
18 august, thu
thu1823:00+9sse018340 0.0 101011
02:00+8se1187100 0.0 101012
05:00+8ene0083100 0.0 101013
08:00+11ene017398 0.0 1009207
11:00+14s2266100 0.1 1008868
14:00+18wsw1151100 0.1 10071438
17:00+13nw5872100 0.3 1009745
20:00+9wnw3991100 0.9 1011446
19 august, fri
fri1923:00+7w2395100 0.0 101364
02:00+6wsw11955 0.0 101316
05:00+5ssw11958 0.0 101311
08:00+9s12835 0.0 1013171
11:00+16se125067 0.0 10101126
14:00+19ene223821 0.0 10081854
17:00+19nne3239100 0.0 10071408
20:00+13sse016058 0.0 100711
20 august, sat
sat2023:00+10nnw126779 0.0 100931
02:00+7nw1179100 0.0 100918
05:00+9w1278100 0.0 101079
08:00+9w1391100 0.3 1010171
11:00+12wnw3481100 0.4 1009496
14:00+12w4781100 1.4 1009637
17:00+11w499086 1.5 1010656
20:00+10wnw51194100 2.9 1012713
21 august, sun
sun2123:00+9wnw31096100 0.4 1014523
02:00+9wnw41096100 0.8 1016539
05:00+9wnw3109677 0.6 1016590
08:00+9wnw3995100 1.2 1017526
11:00+11wnw268897 0.6 1016535
14:00+14nw346564 0.9 10151188
17:00+16nw344798 0.0 10131798
20:00+11wsw11700 0.0 101310
22 august, mon
mon2223:00+8sw11855 0.0 101510
02:00+6sw119127 0.0 101611
05:00+6wsw119372 0.0 101710
08:00+10wsw017476 0.0 1017151
11:00+15nw225990 0.0 1016752
14:00+19nw124230 0.1 10151670
17:00+19nnw324025 0.0 10152087
20:00+13nne116551 0.0 101717